Grayling, MI

9:52 PM EST on February 11, 2016 (GMT -0500)
Grayling

Weather History for KGOV - March, 2013

Change the Weather History Date:

Sunday, March 31, 2013

  Actual Average (KHTL) Record (KHTL)
Temperature  
Mean Temperature 38 °F 36 °F  
Max Temperature 48 °F 46 °F 74 °F (2010)
Min Temperature 28 °F 25 °F -10 °F (1923)
Degree Days  
Heating Degree Days 27 30  
Month to date heating degree days 1114  
Since 1 July heating degree days 6985  
Cooling Degree Days 0 0  
Month to date cooling degree days 0  
Year to date cooling degree days 0  
Moisture  
Dew Point 35 °F    
Average Humidity 86    
Maximum Humidity 100    
Minimum Humidity 59    
Precipitation  
Precipitation 0.00 in 0.07 in 1.55 in (1998)
Month to date precipitation 1.84  
Year to date precipitation 4.56  
Snow  
Snow 0.00 in 0.20 in 12.00 in (1926)
Month to date snowfall 8.3  
Since 1 July snowfall 62.8  
Snow Depth -    
Sea Level Pressure  
Sea Level Pressure 29.65 in    
Wind  
Wind Speed 7 mph (WSW)    
Max Wind Speed 18 mph    
Max Gust Speed 28 mph    
Visibility 6 miles    
Events Fog , Rain , Snow    
T = Trace of Precipitation, MM = Missing Value Source: NWS Daily Summary

Daily Weather History Graph

Daily Weather History Graph

Search for Another Location

Airport or City:

Trip Planner

Search our weather history database for the weather conditions in past years. The results will help you decide how hot, cold, wet, or windy it might be!

Date:

Astronomy

Mar. 31, 2013 Rise Set
Actual Time 7:21 AM EDT 8:05 PM EDT
Civil Twilight 6:51 AM EDT 8:35 PM EDT
Nautical Twilight 6:16 AM EDT 9:10 PM EDT
Astronomical Twilight 5:40 AM EDT 9:46 PM EDT
Moon 12:20 AM EDT (3/31) 9:57 AM EDT (3/31)
Length of Visible Light 13h 43m
Length of Day
12h 44m
Waning Gibbous, 78% of the Moon is Illuminated
Mar 31
Waning Gibbous
Apr 3
Last Quarter
Apr 10
New
Apr 18
First Quarter
Apr 25
Full

Hourly Weather History & Observations

Time (EDT) Temp. Windchill Dew Point Humidity Pressure Visibility Wind Dir Wind Speed Gust Speed Precip Events Conditions
12:15 AM 41.2 °F 39.2 °F 27.9 °F 59% 29.82 in 10.0 mi SSW 3.5 mph - N/A Rain Light Rain
12:35 AM 41.0 °F 37.1 °F 32.0 °F 70% 29.81 in 10.0 mi SSW 5.8 mph - N/A Rain Rain
12:55 AM 41.0 °F 36.4 °F 33.6 °F 75% 29.80 in 10.0 mi SSW 6.9 mph - N/A Rain Light Rain
1:14 AM 41.0 °F 37.1 °F 35.4 °F 81% 29.79 in 10.0 mi SW 5.8 mph - N/A Rain Light Rain
1:35 AM 40.8 °F 37.8 °F 37.0 °F 86% 29.78 in 10.0 mi SW 4.6 mph - N/A Rain Rain
1:55 AM 41.0 °F 38.0 °F 38.7 °F 91% 29.76 in 7.0 mi SSW 4.6 mph - N/A Rain Rain
2:14 AM 41.0 °F 38.0 °F 39.2 °F 93% 29.75 in 7.0 mi SSW 4.6 mph - N/A Rain Rain
2:35 AM 41.0 °F 39.0 °F 39.2 °F 93% 29.74 in 7.0 mi SSW 3.5 mph - N/A   Drizzle
2:55 AM 40.1 °F 36.9 °F 38.8 °F 95% 29.73 in 7.0 mi South 4.6 mph - N/A Rain Light Rain
3:14 AM 39.6 °F 36.3 °F 39.2 °F 99% 29.72 in 5.0 mi South 4.6 mph - N/A Rain Rain
3:35 AM 39.6 °F 36.3 °F 39.2 °F 99% 29.71 in 5.0 mi South 4.6 mph - N/A   Heavy Drizzle
3:55 AM 39.6 °F 34.7 °F 39.2 °F 99% 29.70 in 5.0 mi South 6.9 mph - N/A   Drizzle
4:14 AM 39.6 °F 35.4 °F 39.2 °F 99% 29.69 in 5.0 mi South 5.8 mph - N/A Rain Rain
4:35 AM 39.6 °F 36.3 °F 39.2 °F 99% 29.68 in 5.0 mi South 4.6 mph - N/A Rain Rain
4:55 AM 39.6 °F 34.7 °F 39.4 °F 99% 29.67 in 4.0 mi South 6.9 mph - N/A   Overcast
5:15 AM 39.2 °F 35.0 °F 39.2 °F 100% 29.66 in 5.0 mi South 5.8 mph - N/A   Overcast
5:35 AM 39.4 °F 35.2 °F 39.4 °F 100% 29.65 in 4.0 mi SSW 5.8 mph - N/A   Overcast
5:54 AM 39.6 °F 34.7 °F 39.6 °F 100% 29.64 in 3.0 mi SSW 6.9 mph - N/A   Overcast
6:15 AM 39.6 °F 35.4 °F 39.6 °F 100% 29.64 in 2.5 mi SSW 5.8 mph - N/A   Overcast
6:35 AM 39.2 °F 35.0 °F 39.2 °F 100% 29.64 in 2.5 mi SSW 5.8 mph - N/A   Overcast
6:54 AM 39.2 °F 35.9 °F 39.2 °F 100% 29.64 in 1.8 mi SSW 4.6 mph - N/A   Overcast
7:15 AM 39.0 °F 36.8 °F 39.0 °F 100% 29.63 in 1.2 mi SSW 3.5 mph - N/A   Overcast
7:35 AM 38.5 °F 36.1 °F 38.5 °F 100% 29.64 in 1.0 mi SW 3.5 mph - N/A   Overcast
7:54 AM 39.2 °F 35.9 °F 39.2 °F 100% 29.64 in 0.8 mi WSW 4.6 mph - N/A   Overcast
8:15 AM 39.6 °F 34.0 °F 39.6 °F 100% 29.64 in 0.8 mi West 8.1 mph - N/A   Overcast
8:35 AM 39.0 °F 34.0 °F 39.0 °F 100% 29.64 in 0.8 mi West 6.9 mph - N/A   Overcast
8:54 AM 38.3 °F 33.9 °F 38.3 °F 100% 29.64 in 0.5 mi West 5.8 mph - N/A Fog Fog
9:15 AM 38.3 °F 33.2 °F 38.3 °F 100% 29.64 in 2.0 mi West 6.9 mph - N/A   Overcast
9:35 AM 38.3 °F 31.9 °F 38.3 °F 100% 29.63 in 2.0 mi West 9.2 mph - N/A   Overcast
9:55 AM 38.3 °F 31.9 °F 38.3 °F 100% 29.63 in 3.0 mi WSW 9.2 mph - N/A   Overcast
10:15 AM 38.3 °F 32.5 °F 38.3 °F 100% 29.62 in 3.0 mi WSW 8.1 mph - N/A   Overcast
10:35 AM 38.3 °F 34.8 °F 37.4 °F 97% 29.61 in 4.0 mi WSW 4.6 mph - N/A   Overcast
10:55 AM 38.3 °F 33.9 °F 37.4 °F 97% 29.61 in 4.0 mi WSW 5.8 mph - N/A   Overcast
11:15 AM 38.3 °F 33.2 °F 36.5 °F 93% 29.60 in 5.0 mi West 6.9 mph - N/A   Overcast
11:34 AM 38.3 °F 32.5 °F 36.0 °F 91% 29.60 in 5.0 mi WSW 8.1 mph - N/A   Overcast
11:55 AM 38.8 °F 33.8 °F 36.1 °F 90% 29.60 in 5.0 mi SW 6.9 mph - N/A   Overcast
12:15 PM 40.6 °F 35.4 °F 36.0 °F 83% 29.59 in 7.0 mi WSW 8.1 mph - N/A   Mostly Cloudy
12:34 PM 42.1 °F 37.1 °F 36.3 °F 80% 29.59 in 7.0 mi WSW 8.1 mph - N/A   Scattered Clouds
12:55 PM 43.9 °F 39.9 °F 36.1 °F 74% 29.58 in 7.0 mi West 6.9 mph - N/A   Scattered Clouds
1:15 PM 48.0 °F - 37.6 °F 67% 29.58 in 10.0 mi WSW 10.4 mph - N/A   Scattered Clouds
1:34 PM 48.4 °F - 37.6 °F 66% 29.58 in 10.0 mi West 11.5 mph 19.6 mph N/A   Mostly Cloudy
1:55 PM 46.9 °F - 36.1 °F 66% 29.58 in 10.0 mi West 9.2 mph 21.9 mph N/A   Mostly Cloudy
2:15 PM 45.9 °F 40.4 °F 35.8 °F 68% 29.58 in 10.0 mi West 11.5 mph 20.7 mph N/A   Overcast
2:34 PM 43.3 °F 37.7 °F 34.5 °F 71% 29.58 in 10.0 mi West 10.4 mph 16.1 mph N/A   Overcast
2:55 PM 43.7 °F 37.3 °F 34.7 °F 71% 29.59 in 10.0 mi West 12.7 mph 19.6 mph N/A   Overcast
3:15 PM 41.4 °F 34.7 °F 32.9 °F 72% 29.59 in 10.0 mi West 11.5 mph 20.7 mph N/A   Overcast
3:35 PM 41.0 °F 33.9 °F 32.2 °F 71% 29.58 in 10.0 mi West 12.7 mph 21.9 mph N/A   Overcast
3:55 PM 41.0 °F 34.3 °F 32.2 °F 71% 29.59 in 10.0 mi West 11.5 mph 23.0 mph N/A   Overcast
4:15 PM 41.5 °F 34.2 °F 32.0 °F 69% 29.58 in 10.0 mi West 13.8 mph 20.7 mph N/A   Overcast
4:35 PM 42.1 °F 36.6 °F 32.0 °F 67% 29.57 in 10.0 mi WSW 9.2 mph - N/A   Mostly Cloudy
4:55 PM 41.9 °F 35.4 °F 31.8 °F 67% 29.57 in 10.0 mi WSW 11.5 mph 17.3 mph N/A   Scattered Clouds
5:15 PM 43.2 °F 36.2 °F 31.6 °F 64% 29.57 in 10.0 mi WSW 13.8 mph 19.6 mph N/A   Clear
5:35 PM 42.1 °F 36.1 °F 31.1 °F 65% 29.57 in 10.0 mi WSW 10.4 mph 16.1 mph N/A   Mostly Cloudy
5:55 PM 41.5 °F 34.6 °F 30.7 °F 65% 29.58 in 10.0 mi WSW 12.7 mph 19.6 mph N/A   Mostly Cloudy
6:14 PM 41.0 °F 33.1 °F 30.7 °F 67% 29.58 in 10.0 mi WSW 15.0 mph 21.9 mph N/A   Overcast
6:35 PM 39.6 °F 34.0 °F 31.1 °F 72% 29.58 in 10.0 mi WSW 8.1 mph 18.4 mph N/A   Light Drizzle
6:55 PM 38.3 °F 31.4 °F 32.0 °F 78% 29.58 in 7.0 mi West 10.4 mph 19.6 mph N/A Rain Light Rain
7:14 PM 35.8 °F 27.3 °F 32.9 °F 89% 29.60 in 1.0 mi West 12.7 mph 24.2 mph N/A   Overcast
7:35 PM 34.5 °F 24.8 °F 33.8 °F 97% 29.61 in 1.8 mi WNW 15.0 mph 19.6 mph N/A Snow Light Snow
7:55 PM 33.3 °F 25.7 °F 32.2 °F 96% 29.62 in 1.2 mi West 9.2 mph - N/A Snow Light Snow
8:15 PM 33.3 °F 25.7 °F 32.5 °F 97% 29.63 in 3.0 mi WNW 9.2 mph - N/A Snow Light Snow
8:35 PM 33.3 °F 26.4 °F 32.0 °F 95% 29.63 in 4.0 mi West 8.1 mph - N/A Snow Light Snow
8:54 PM 33.3 °F 24.6 °F 32.0 °F 95% 29.64 in 4.0 mi WNW 11.5 mph 17.3 mph N/A Snow Light Snow
9:15 PM 33.3 °F 22.1 °F 30.9 °F 91% 29.65 in 10.0 mi WNW 18.4 mph 24.2 mph N/A Snow Light Snow
9:35 PM 32.9 °F 21.6 °F 30.4 °F 90% 29.66 in 5.0 mi NW 18.4 mph 24.2 mph N/A Snow Light Snow
9:54 PM 30.9 °F 19.8 °F 26.6 °F 84% 29.68 in 7.0 mi NW 16.1 mph 27.6 mph N/A Snow Light Snow
10:15 PM 28.9 °F 17.7 °F 24.8 °F 84% 29.69 in 10.0 mi WNW 15.0 mph 21.9 mph N/A   Overcast
10:35 PM 28.9 °F 18.6 °F 25.5 °F 87% 29.69 in 5.0 mi NW 12.7 mph 18.4 mph N/A Snow Light Snow
10:54 PM 28.4 °F 18.0 °F 23.5 °F 82% 29.70 in 10.0 mi NW 12.7 mph 21.9 mph N/A   Overcast
11:15 PM 28.4 °F 16.6 °F 21.4 °F 75% 29.71 in 10.0 mi WNW 16.1 mph 24.2 mph N/A   Mostly Cloudy
11:35 PM 28.4 °F 15.8 °F 20.7 °F 73% 29.71 in 10.0 mi WNW 18.4 mph 24.2 mph N/A   Mostly Cloudy
11:55 PM 28.4 °F 16.2 °F 21.2 °F 74% 29.71 in 10.0 mi NW 17.3 mph 24.2 mph N/A   Mostly Cloudy